Location: St. Louis
(38.6270°N, 90.1994°W)
Time: 20:02:22
(UTC-05:00)

RS-15 - Visible Passes

Search period start: 17 August 2022 00:00
Search period end: 27 August 2022 00:00
Orbit: 1881 x 2163 km, 64.8° (Epoch: 16 August)

Date Brightness Start Highest point End Pass type
(mag) Time Alt. Az. Time Alt. Az. Time Alt. Az.
17 Aug 10.4 05:05:57 10° ESE 05:10:58 14° E 05:16:00 10° ENE visible
20 Aug 9.8 05:24:08 10° SSE 05:33:49 31° ESE 05:43:44 10° NE visible
21 Aug 10.0 04:50:11 10° SE 04:58:20 22° E 05:06:37 10° NE visible
22 Aug 10.2 04:17:23 10° SE 04:22:57 15° E 04:28:36 10° ENE visible
23 Aug 8.9 05:45:46 10° S 05:57:11 56° ESE 06:09:01 10° NE visible
24 Aug 9.2 05:10:40 10° S 05:21:28 43° ESE 05:32:36 10° NE visible
25 Aug 9.6 04:35:59 10° SSE 04:45:51 32° ESE 04:55:58 10° NE visible
26 Aug 9.9 04:01:55 10° SE 04:10:21 23° E 04:18:56 10° NE visible
